CDT,Max TemperatureF,Mean TemperatureF,Min TemperatureF,Max Dew PointF,MeanDew PointF,Min DewpointF,Max Humidity, Mean Humidity, Min Humidity, Max Sea Level PressureIn, Mean Sea Level PressureIn, Min Sea Level PressureIn, Max VisibilityMiles, Mean VisibilityMiles, Min VisibilityMiles, Max Wind SpeedMPH, Mean Wind SpeedMPH, Max Gust SpeedMPH,PrecipitationIn, CloudCover, Events, WindDirDegrees
2012-10-1,82,70,59,59,52,45,94,61,26,29.90,29.84,29.79,10,10,7,20,9,28,0.07,2,Rain,331
2012-10-2,80,70,60,59,54,48,88,63,34,29.98,29.93,29.89,10,10,3,13,5,17,0.05,2,Rain,335
2012-10-3,82,68,55,59,53,45,100,65,26,30.04,29.98,29.94,10,10,2,17,5,22,0.00,0,,173
2012-10-4,86,72,59,64,60,54,94,68,45,30.16,30.09,30.04,10,10,10,16,7,23,0.00,3,,152
2012-10-5,69,61,51,63,54,45,83,74,60,30.15,30.09,30.05,10,10,10,21,8,26,0.00,7,,352
2012-10-6,51,48,44,45,40,36,82,74,66,30.29,30.21,30.15,10,10,10,18,13,23,0.00,8,Rain,32
2012-10-7,53,48,42,39,34,28,76,60,41,30.34,30.27,30.21,10,10,10,12,8,16,0.00,6,,2
2012-10-8,68,52,35,43,36,34,93,61,28,30.26,30.18,30.07,10,10,10,9,4,,0.00,0,,173
2012-10-9,73,60,46,61,52,43,94,77,57,30.09,29.98,29.87,10,10,10,22,9,30,0.00,4,,152
2012-10-10,68,64,60,61,57,54,94,78,64,30.21,30.13,30.02,10,10,5,16,8,20,0.00,7,,67
2012-10-11,82,73,64,70,64,55,88,77,62,30.17,30.12,30.07,10,10,7,16,8,18,0.00,6,,159
2012-10-12,86,77,68,70,66,64,94,78,48,30.19,30.13,30.09,10,9,5,14,8,18,0.00,4,,178
2012-10-13,82,73,64,68,66,63,100,79,61,30.08,29.95,29.80,10,9,1,32,13,53,1.87,4,Rain-Thunderstorm,180
2012-10-14,80,68,55,64,53,46,100,63,30,30.10,30.00,29.85,10,10,10,15,7,18,0.00,0,Thunderstorm,298
2012-10-15,82,68,53,54,49,43,88,57,25,30.12,30.05,29.97,10,10,10,8,4,,0.00,0,,244
2012-10-16,77,67,57,61,53,48,94,67,44,29.99,29.82,29.67,10,10,7,22,9,26,0.00,1,,180
2012-10-17,84,73,60,64,57,41,94,62,32,29.84,29.63,29.53,10,10,10,28,15,33,0.00,4,,251
2012-10-18,71,60,50,41,33,27,62,37,19,30.02,29.94,29.85,10,10,10,17,7,23,0.00,0,,315
2012-10-19,75,60,46,43,33,27,67,41,17,30.01,29.94,29.88,10,10,10,15,7,22,0.00,0,,288
2012-10-20,84,67,50,64,51,36,78,59,33,29.89,29.82,29.73,10,10,10,22,8,29,0.00,0,,182
2012-10-21,86,78,71,70,69,64,94,74,55,29.88,29.83,29.78,10,10,7,22,13,29,0.00,4,,175
2012-10-22,80,74,68,70,67,63,100,79,57,30.00,29.94,29.87,10,10,5,18,12,25,0.02,4,Rain-Thunderstorm,182
2012-10-23,84,76,68,68,67,64,94,78,58,29.97,29.92,29.87,10,10,10,21,11,24,0.00,4,,179
2012-10-24,82,73,64,66,63,63,94,77,51,29.99,29.91,29.83,10,10,10,21,10,29,0.00,1,,170
2012-10-25,77,64,50,66,55,39,94,73,55,30.13,29.93,29.80,10,10,4,22,14,30,0.00,5,Rain,257
2012-10-26,53,47,41,39,35,32,76,63,44,30.34,30.25,30.12,10,10,10,23,16,31,0.00,3,,350
2012-10-27,59,47,35,32,31,28,87,63,31,30.36,30.27,30.18,10,10,10,13,9,17,0.00,0,,347
2012-10-28,60,46,33,34,30,27,93,58,27,30.32,30.26,30.20,10,10,5,13,7,17,0.00,0,,3
2012-10-29,68,52,35,34,30,27,81,49,21,30.32,30.24,30.13,10,10,3,8,3,,0.00,0,,154
2012-10-30,77,57,37,43,38,32,87,56,27,30.13,30.02,29.92,10,10,2,12,2,,0.00,0,,227
2012-10-31,78,64,50,48,45,43,82,58,28,30.04,29.99,29.93,10,10,3,14,5,17,0.00,0,,322